Location: Shutter Corners
(42.6754°N, 74.2529°W)
Time: 14:26:47
(UTC+00:00)

Daily predictions for brighter satellites

Satellite Brightness Start Highest point End
(mag) Time Altitude Azimuth Time Altitude Azimuth Time Altitude Azimuth
USA 234 3.7 21:45:42 10° E 21:51:44 41° NNE 21:57:46 10° NW
CZ-2C R/B 4.0 21:51:44 10° NE 21:55:09 18° E 21:58:34 10° SE
Cosmos 1782 3.0 21:51:20 10° S 21:55:11 50° E 21:59:03 10° NNE
Cosmos 1743 Rocket 3.7 21:51:04 10° N 21:55:24 81° W 21:59:44 10° S
COSMOS 2406 3.5 21:51:13 10° SSW 21:56:58 77° WNW 22:02:44 10° NNE
Cosmos 858 Rocket 4.5 21:54:05 10° NNW 21:59:24 77° ENE 22:04:39 10° SSE
NOSS 2-2 (D) 4.5 21:56:15 10° NNW 22:01:35 68° NE 22:09:05 10° SE
SL-24 R/B - RUBIN 2 3.5 21:58:46 10° NNW 22:03:15 67° NE 22:07:31 10° SE
CZ-4C R/B 3.1 21:58:31 10° NNW 22:05:38 56° NE 22:13:54 10° SE
Cosmos 2279 Rocket 4.4 21:59:54 10° SSE 22:05:39 41° E 22:11:24 10° NNE
Cosmos 1666 Rocket 4.2 22:02:34 10° N 22:06:39 35° ENE 22:10:40 10° SE
Cosmos 1666 3.5 22:03:44 10° NNE 22:06:59 28° ENE 22:10:12 10° SE
Cosmos 1627 Rocket 4.4 22:00:51 10° N 22:07:01 72° E 22:13:06 10° SSE
Okean O Rocket 3.0 22:07:53 10° ESE 22:10:52 18° ENE 22:13:51 10° NNE
CZ-4B R/B 4.0 22:07:15 10° ESE 22:11:46 28° ENE 22:16:13 10° N
SMAP 3.0 22:07:25 10° SSE 22:12:01 66° ENE 22:16:39 10° N
Meteor 2-14 Rocket 4.4 22:06:28 10° N 22:12:34 72° E 22:18:36 10° SSE
Lacrosse 5 rocket 2.1 22:14:04 10° NNW 22:17:34 30° NNE 22:20:51 12° E
Cosmos 1814 Rocket 4.0 22:13:23 10° S 22:18:33 68° ESE 22:23:42 10° NNE
PAYLOAD B 4.4 22:17:43 10° SE 22:23:07 50° ENE 22:28:30 10° N
Cosmos 1570 Rocket 4.0 22:17:59 10° S 22:23:09 65° ESE 22:28:21 10° NNE
Sich 1 3.1 22:20:07 10° N 22:24:26 80° W 22:28:46 10° S
CZ-2C R/B 3.1 22:22:16 10° SW 22:25:43 23° SSE 22:29:04 10° ESE
Cosmos 1634 Rocket 4.1 22:20:33 10° S 22:26:52 85° W 22:33:15 10° N
Cosmos 2360 Rocket 3.7 22:24:00 10° N 22:27:12 15° NE 22:28:09 14° NE
MOS 1-B Rocket 4.4 22:22:05 10° NNE 22:28:04 54° E 22:34:59 10° S
Cosmos 2026 Rocket 4.1 22:22:53 10° N 22:29:01 81° W 22:35:04 10° S
USA 308 4.3 22:27:37 10° NW 22:30:59 22° NNE 22:32:48 17° NE
PSLV R/B 3.6 22:27:40 10° SSE 22:31:18 60° ENE 22:35:00 10° N
ISS -3.4 22:28:30 10° WNW 22:31:54 68° SW 22:35:14 10° SE
Cosmos 44 Rocket 3.5 22:27:40 10° NNW 22:32:23 45° NE 22:36:57 10° SE
deb Chang Zheng 4 4.2 22:29:17 10° SE 22:33:07 32° ENE 22:36:56 10° N
Cosmos 1812 2.7 22:31:40 10° S 22:35:30 90° SSE 22:39:22 10° N
Meteor 2-21 Rocket 4.4 22:33:59 10° N 22:40:06 87° E 22:46:09 10° S
Aureole 3 Rocket 4.4 22:39:56 10° SE 22:43:35 25° E 22:47:35 12° NNE
Cosmos 1544 3.8 22:42:35 10° NNE 22:45:49 29° ENE 22:49:01 10° SE
Cosmos 1818 3.6 22:40:43 10° NNW 22:46:10 61° NE 22:51:32 10° SE
Cosmos 2322 Rocket 2.9 22:44:53 10° N 22:49:58 32° NE 22:52:57 20° ESE
Cosmos 1515 Rocket 3.9 22:47:18 10° SSE 22:51:29 42° E 22:54:14 19° NNE
Meteor 1-10 Rocket 4.3 22:47:11 10° S 22:52:47 56° E 22:58:20 10° NNE
Cosmos 1980 Rocket 3.0 22:48:17 10° NNW 22:53:47 54° WSW 22:59:14 10° S
Meteor 1-11 Rocket 4.0 22:50:35 10° N 22:55:59 44° ENE 23:01:27 10° SE
USA 305 3.9 22:52:20 10° NW 22:56:03 28° NNE 22:56:42 27° NE
Cosmos 1356 Rocket 3.9 22:53:11 10° N 22:57:06 36° ENE 23:01:03 10° SE
Cosmos 921 Rocket 2.8 22:53:49 10° S 22:57:59 76° ESE 23:00:52 20° NNE
APEX 2.9 22:54:27 10° SSW 22:58:19 62° ESE 22:59:13 43° NE
SJ-11-01 4.3 22:54:41 10° SSE 22:59:18 56° ENE 23:03:58 10° N
Cosmos 2208 Rocket 4.3 22:56:04 10° SSW 23:01:27 74° WNW 23:06:56 10° NNE
Cosmos 2180 Rocket 4.5 22:55:20 10° S 23:01:40 87° E 23:07:58 10° N
USA 267 3.7 22:56:58 17° NE 23:01:58 54° NNW 23:08:17 10° WSW
Tiangong 3.3 23:02:26 10° S 23:04:10 15° SSE 23:04:10 15° SSE
Cosmos 1655 Rocket 4.0 22:58:06 10° N 23:04:27 63° E 23:10:44 10° SSE
COSMOS 2455 4.2 22:58:59 10° WSW 23:04:27 35° NW 23:09:57 10° NNE
DEBRIS 3.5 23:03:26 10° SSW 23:05:45 34° SE 23:05:58 33° ESE
Cosmos 2150 Rocket 3.9 23:01:46 10° NNW 23:06:56 63° ENE 23:12:08 10° SSE
CZ-4 R/B 4.4 23:03:29 10° SSE 23:07:32 61° ENE 23:11:38 10° N
YAOGAN 3 4.5 23:03:20 10° SSE 23:07:39 65° ENE 23:11:58 10° N
Cosmos 1867 3.8 23:03:47 10° S 23:08:59 48° ESE 23:10:43 35° ENE
SL-16 R/B 2.2 23:04:33 10° NNW 23:10:10 58° ENE 23:15:44 10° SE
H-2A R/B 2.3 23:05:23 10° S 23:10:30 68° WSW 23:15:32 10° NNW
Cosmos 2082 Rocket 3.6 23:05:28 10° WSW 23:10:37 35° WNW 23:15:46 10° N
ARGOS 3.0 23:07:14 10° SSE 23:12:38 76° ENE 23:18:02 10° N
COSMO-SKYMED 1 2.5 23:09:47 15° NNE 23:13:23 87° W 23:17:43 10° SSW
Feng Yun 1-1 Rocket 4.4 23:09:24 10° SE 23:15:06 53° ENE 23:20:46 10° N
Cosmos 1151 Rocket 4.4 23:11:16 10° SW 23:15:18 38° WNW 23:19:23 10° N
Cosmos 1125 Rocket 3.4 23:10:13 10° NNW 23:15:28 70° ENE 23:20:43 10° SSE
Cosmos 1633 Rocket 4.0 23:11:25 10° NNW 23:15:39 49° W 23:19:53 10° SSW
USA 32 4.0 23:11:29 10° SSE 23:16:34 55° E 23:19:45 23° NNE
X-37B 1.7 23:21:04 10° WSW 23:23:02 39° SW 23:23:02 39° SW
Landsat 5 3.2 23:23:02 52° NNE 23:23:58 84° ESE 23:27:53 10° SSW
SL-08 RB Rocket 3.6 23:19:38 10° SSE 23:24:13 68° ENE 23:28:48 10° N
Cosmos 2333 Rocket 3.9 23:23:39 10° N 23:25:38 17° NNE 23:25:38 17° NNE
USA 306 3.8 23:24:31 10° NW 23:27:42 35° N 23:27:42 35° N
USA 234 3.4 23:28:31 13° SE 23:34:27 75° SW 23:41:01 10° NW
CZ-2C R/B 3.1 23:30:46 10° N 23:35:50 57° WNW 23:40:53 10° SSW
ATLAS 2AS CENTAUR R/B 4.4 23:32:04 10° NNW 23:36:47 17° NNE 23:36:57 17° NNE
Meteor 2-15 Rocket 4.5 23:30:49 10° SSW 23:36:56 79° W 23:43:04 10° N
Cosmos 2219 Rocket 4.2 23:34:58 10° N 23:35:57 14° N 23:35:57 14° N
Cosmos 1933 Rocket 3.6 23:37:49 10° NNW 23:42:09 73° W 23:46:27 10° S
NOSS 3-3 (A) 3.7 23:37:26 10° SSW 23:42:57 65° ESE 23:43:33 61° E
NOSS 3-3 (C) 3.7 23:37:32 10° SSW 23:43:04 65° ESE 23:43:37 61° E
Okean O Rocket 2.6 23:42:32 10° S 23:46:50 48° W 23:51:09 10° NNW
USA 307 4.3 23:44:42 10° NW 23:47:06 30° NNW 23:47:06 30° NNW
DMSP 5D-2 F-14 4.5 23:43:48 10° SSE 23:49:14 78° ENE 23:54:41 10° NNW
CZ-4B R/B 4.4 23:47:04 10° SSW 23:52:08 40° W 23:57:09 10° NNW
ATLAS 5 CENTAUR R/B 3.5 23:52:18 10° NW 23:54:52 26° NW 23:54:52 26° NW
